Regional Weather Roundup
Issued by NWS

Home | Current Version | Previous Version | Graphics & Text | Print | Product List | Glossary On
Versions: 1 2 3 4 5 6 7 8 9 10 11 12 13 14 15 16 17 18 19 20 21 22 23 24 25 26 27 28 29 30 31 32 33 34 35 36 37 38 39 40 41 42 43 44 45 46 47 48 49 50
000
ASUS45 KSLC 272010
RWRUT

UTAH REGIONAL WEATHER ROUNDUP
NATIONAL WEATHER SERVICE SALT LAKE CITY UT
100 PM MST SAT DEC 27 2014

UTZ001>011-023>025-272100-

NORTHERN UTAH

CITY           SKY/WX    TMP DP  RH WIND       PRES   REMARKS
BRIGHAM CITY   CLOUDY    25  15  66 CALM      30.34F
HILL AFB       PTSUNNY   25  14  63 S10       30.30F WCI  15
LOGAN          SUNNY     16   9  74 NW3       30.32F
OGDEN          PTSUNNY   26  16  65 S9        30.31F WCI  17
PROVO AIRPORT  MOSUNNY   23  14  68 CALM      30.35F
SALT LAKE CITY PTSUNNY   27  15  61 S13       30.32F WCI  16
VERNAL         SUNNY     20  11  68 E3        30.28F
WENDOVER       PTSUNNY   30  12  47 E3        30.30F
HEBER CITY     SUNNY     18   9  68 CALM      30.27F
WEST JORDAN    SUNNY     25  19  80 SE13      30.32F WCI  13

$$

UTZ012>022-026-027-272100-

SOUTHERN/CENTRAL UTAH

CITY           SKY/WX    TMP DP  RH WIND       PRES   REMARKS
BLANDING       SUNNY     29  10  44 S6        30.30F WCI  23
BRYCE CANYON   SUNNY     20   2  45 N7        30.20F WCI  11
CEDAR CITY     SUNNY     20   9  62 W3        30.28F
DELTA          SUNNY     23  14  68 SE3       30.33F
MILFORD        SUNNY     15  10  80 SW6       30.32F WCI   6
MOAB/CYNLANDS  SUNNY     20  13  74 NW8       30.30F WCI  10
PRICE          SUNNY     26   5  40 SE5       30.22F WCI  20
ST GEORGE      CLEAR     39   9  28 CALM      30.39F
KANAB          SUNNY     34   5  29 CALM      30.32F

$$

REGIONAL REPORTS     COLORADO/ARIZONA

CITY           SKY/WX    TMP DP  RH WIND       PRES   REMARKS
CRAIG, CO      PTSUNNY   16   9  74 CALM      30.23F
GRAND JUNCTION SUNNY     25  11  55 CALM      30.29F
RIFLE          SUNNY     22   5  48 CALM      30.26F
MONTROSE       SUNNY     24   8  50 VRB3      30.27F
CORTEZ         SUNNY     28  11  48 S5        30.21F WCI  23
PAGE, AZ       SUNNY     36   7  29 CALM      30.31F
GRAND CANYON   SUNNY     30   8  39 NE7       30.23F WCI  23
KINGMAN        SUNNY     43  10  26 N8        30.31F
FLAGSTAFF      SUNNY     27  10  49 E13       30.19F WCI  16

$$

REGIONAL REPORTS    NEVADA/IDAHO/WYOMING

CITY           SKY/WX    TMP DP  RH WIND       PRES   REMARKS
LAS VEGAS, NV  MOSUNNY   47   7  19 VRB6      30.34F
ELY            MOSUNNY   23   8  52 S5        30.24F WCI  17
ELKO           SUNNY     26  13  57 SW7       30.28F WCI  18
POCATELLO, ID  CLOUDY    28  18  66 SW10      30.25F WCI  19
BURLEY         CLOUDY    28  17  63 SW14      30.25F WCI  17
EVANSTON, WY   PTSUNNY   18   9  68 SW16      30.16F WCI   3
ROCK SPRINGS   MOSUNNY   14   6  70 W22       30.13F WCI  -4

$$



USA.gov is the U.S. government's official web portal to all federal, state and local government web resources and services.